Temp
3 1 -1 -0 -0 1 1 2 1 2 3 3 3 3 3 4 6 5 6 8 8 9 9 10 10 10 10 11 11 10 10 9 8 8 7 6 6 6 5 4 4 5 5
2 1 -1 -1 -1 0 0 1 2 2 1 3 2 3 2 2 4 4 4 6 7 8 8 9 9 9 9 9 10 10 8 8 8 8 8 7 6 4 3 3 3 3 4
2 1 -1 -2 -2 -1 -0 0 1 2 1 1 2 2 1 1 2 3 2 4 5 6 7 7 8 8 9 9 9 9 9 8 7 8 9 8 7 4 2 2 2 2 2
3 1 -0 -2 -2 -2 -1 -1 0 0 3 2 2 1 0 0 1 2 2 2 3 4 5 5 6 7 7 8 8 8 8 8 6 6 6 7 7 6 4 1 0 1 1
3 1 0 -1 -2 -2 -2 -1 -1 -1 -1 0 2 1 0 -0 -0 0 1 1 2 3 4 4 4 5 5 5 6 6 7 7 5 4 4 4 5 6 5 3 -1 -1 -1
2 0 -0 -2 -3 -3 -3 -2 -2 -1 -1 -1 -1 1 -0 -1 -1 -1 0 0 1 1 2 2 3 3 3 3 3 4 4 4 3 2 2 1 0 0 2 2 0 -1 -3
2 -1 -2 -3 -4 -5 -4 -4 -3 -3 -2 -2 -2 -1 -1 -2 -2 -1 -1 -1 -1 -0 -0 1 1 2 2 1 2 2 1 1 1 0 -0 -0 -1 -0 -0 0 -1 -0 -3
1 -1 -2 -3 -4 -5 -5 -4 -4 -4 -3 -3 -2 -3 -3 -3 -3 -2 -1 -1 -1 -1 -1 -0 -0 -0 0 0 0 0 -1 -1 -1 -1 -1 -2 -2 -1 -1 -1 -1 -1 -2
-1 -2 -4 -4 -5 -5 -5 -5 -5 -5 -5 -4 -5 -5 -4 -3 -3 -4 -3 -3 -3 -3 -2 -2 -2 -2 -1 -1 -1 -2 -2 -2 -3 -3 -3 -3 -4 -3 -3 -2 -2 -3 -3
-2 -5 -5 -5 -5 -5 -6 -6 -6 -6 -7 -6 -6 -6 -6 -6 -4 -4 -4 -4 -3 -3 -3 -3 -3 -3 -2 -2 -2 -3 -3 -3 -4 -5 -4 -5 -5 -5 -4 -4 -4 -3 -4
-6 -6 -6 -6 -6 -6 -7 -7 -7 -7 -8 -7 -7 -8 -7 -8 -6 -5 -5 -5 -4 -4 -4 -4 -4 -4 -4 -4 -4 -4 -5 -5 -6 -6 -6 -7 -6 -6 -6 -5 -5 -5 -5
-6 -7 -7 -7 -7 -7 -8 -8 -8 -9 -9 -9 -8 -9 -9 -8 -6 -6 -6 -6 -5 -5 -5 -5 -5 -5 -5 -5 -5 -5 -6 -6 -7 -7 -7 -7 -7 -7 -7 -7 -7 -8 -8
-8 -8 -8 -8 -8 -8 -9 -10 -10 -10 -10 -9 -9 -10 -10 -8 -7 -7 -7 -6 -6 -6 -6 -6 -6 -6 -6 -6 -7 -7 -7 -7 -8 -8 -8 -8 -8 -8 -8 -8 -8 -9 -9
-8 -9 -10 -10 -9 -9 -10 -11 -11 -10 -10 -10 -10 -11 -10 -8 -8 -8 -8 -7 -7 -7 -7 -7 -7 -7 -7 -7 -8 -8 -8 -8 -8 -8 -9 -9 -9 -9 -9 -9 -9 -9 -9
-9 -10 -13 -12 -11 -11 -11 -11 -11 -11 -11 -11 -11 -11 -9 -9 -9 -9 -9 -8 -8 -8 -8 -8 -8 -8 -8 -8 -8 -9 -9 -9 -9 -9 -9 -10 -10 -9 -9 -9 -9 -9 -9
-9 -10 -12 -13 -12 -11 -12 -12 -12 -12 -11 -12 -12 -10 -10 -10 -10 -10 -9 -9 -9 -9 -8 -8 -8 -8 -7 -7 -9 -9 -10 -10 -10 -10 -10 -10 -10 -9 -9 -9 -9 -8 -9
-9 -10 -11 -13 -13 -12 -12 -13 -13 -12 -12 -12 -12 -11 -11 -10 -11 -10 -10 -10 -10 -9 -9 -9 -9 -8 -8 -7 -9 -10 -10 -10 -10 -10 -10 -10 -10 -10 -9 -9 -9 -9 -9
-9 -10 -12 -13 -13 -13 -13 -13 -13 -13 -12 -13 -12 -12 -11 -11 -11 -11 -11 -11 -10 -10 -10 -10 -10 -9 -9 -8 -9 -11 -11 -11 -11 -11 -11 -11 -10 -9 -8 -9 -10 -10 -10
-10 -12 -13 -14 -14 -14 -14 -14 -13 -13 -13 -13 -13 -12 -12 -12 -12 -11 -11 -11 -11 -11 -11 -11 -11 -10 -10 -9 -10 -10 -11 -11 -11 -11 -11 -11 -10 -9 -10 -10 -10 -10 -10
-12 -13 -14 -14 -14 -14 -14 -14 -14 -14 -13 -13 -13 -12 -12 -12 -11 -11 -12 -12 -11 -12 -12 -12 -12 -11 -10 -9 -10 -11 -11 -11 -11 -11 -11 -11 -9 -9 -9 -10 -11 -11 -11
-13 -14 -14 -14 -14 -14 -14 -14 -14 -13 -13 -13 -12 -12 -12 -12 -12 -12 -12 -12 -12 -12 -12 -12 -12 -12 -11 -10 -9 -10 -11 -11 -11 -11 -11 -11 -10 -10 -11 -11 -11 -11 -12
-12 -14 -14 -14 -14 -14 -14 -13 -13 -13 -13 -13 -13 -12 -13 -14 -13 -12 -12 -12 -13 -13 -13 -13 -13 -12 -12 -11 -10 -10 -10 -11 -11 -12 -12 -12 -11 -12 -12 -12 -12 -12 -12
-13 -13 -14 -14 -14 -14 -13 -13 -14 -13 -13 -13 -14 -14 -14 -14 -13 -13 -13 -13 -13 -13 -13 -13 -13 -12 -12 -12 -12 -11 -10 -11 -12 -12 -12 -13 -12 -12 -12 -13 -13 -12 -12
-13 -14 -14 -14 -13 -13 -13 -13 -13 -13 -14 -14 -14 -14 -14 -14 -14 -13 -13 -13 -13 -13 -13 -13 -13 -12 -11 -11 -11 -11 -11 -11 -12 -12 -12 -12 -12 -12 -12 -12 -12 -13 -13
-13 -13 -13 -13 -13 -13 -13 -14 -14 -14 -14 -14 -15 -15 -14 -14 -14 -13 -13 -13 -13 -13 -13 -13 -13 -12 -11 -11 -10 -11 -11 -12 -13 -12 -12 -12 -12 -12 -12 -12 -12 -13 -13
-13 -13 -13 -14 -14 -14 -14 -14 -14 -14 -14 -15 -15 -15 -15 -14 -14 -14 -13 -12 -12 -12 -12 -13 -13 -13 -12 -11 -11 -11 -12 -12 -13 -12 -12 -12 -12 -12 -12 -12 -12 -12 -13
Height
815 817 820 822 825 827 831 831 837 835 836 841 846 851 848 849 850 850 856 856 857 860 861 861 863 866 867 867 870 869 871 875 878 879 885 889 892 891 892 893 895 893 895
809 813 816 819 823 823 826 830 831 833 838 837 846 846 848 853 851 851 855 857 855 859 861 862 865 866 867 869 869 872 873 876 877 880 883 891 898 897 897 898 898 898 899
800 805 810 815 821 819 822 827 830 833 837 836 838 846 849 854 852 854 856 856 857 858 862 861 866 868 867 869 869 874 875 876 878 879 879 886 893 899 902 901 902 902 902
791 796 800 810 814 817 820 824 827 832 828 839 836 844 851 852 850 852 856 855 858 859 859 865 866 867 869 870 869 874 876 878 878 881 880 880 885 893 903 905 906 905 906
780 787 793 802 810 814 817 820 826 828 831 835 836 840 849 852 851 852 855 859 859 857 862 867 869 868 869 871 870 874 877 878 880 880 883 883 884 888 893 901 907 907 910
769 779 788 796 803 809 814 818 823 828 833 837 835 838 846 851 852 851 854 858 860 858 864 868 870 872 870 873 874 875 878 879 881 882 884 885 887 890 891 897 904 907 912
764 773 781 791 797 804 811 816 821 825 829 834 835 837 846 851 852 851 855 856 859 861 867 866 870 874 875 876 877 880 880 882 883 885 885 888 890 891 893 895 901 906 912
758 768 776 783 793 801 807 813 818 822 826 834 833 839 844 849 854 853 853 856 859 862 868 867 872 877 879 879 880 882 884 887 888 888 890 892 894 895 895 897 901 905 910
758 767 777 784 793 798 804 810 815 820 825 832 836 840 845 846 854 857 857 856 860 865 867 871 875 879 881 882 883 885 888 891 892 893 895 896 900 900 900 901 902 904 909
760 769 777 785 790 796 803 810 815 820 825 832 837 840 845 846 854 858 860 858 860 866 870 874 878 883 883 885 885 887 892 893 895 897 899 901 904 904 905 904 905 906 908
767 772 778 784 790 797 803 808 814 820 826 833 835 841 842 853 855 860 863 861 863 870 873 876 879 886 885 887 889 890 895 896 899 901 903 905 908 907 908 908 908 909 911
773 778 781 785 792 798 804 809 815 820 827 832 835 841 847 853 860 861 865 867 867 872 874 877 882 887 888 891 891 892 899 900 902 905 906 908 910 911 912 911 911 913 915
779 783 788 791 795 801 807 812 816 821 827 832 837 842 851 855 860 862 866 869 870 874 876 881 885 890 891 893 895 897 902 904 906 908 909 911 913 913 913 914 914 916 917
780 785 792 796 799 804 808 813 817 823 828 833 838 844 852 857 861 865 870 870 873 876 879 885 889 892 893 896 899 902 905 907 909 910 911 913 914 914 915 916 916 917 917
781 784 792 796 802 807 811 815 819 823 827 832 839 847 853 859 864 870 871 873 878 880 884 888 892 895 897 901 903 905 907 909 910 911 912 913 915 916 916 916 917 918 918
778 783 789 797 800 805 810 815 820 824 829 835 842 849 855 862 867 869 873 876 880 884 887 891 894 897 901 905 906 907 909 910 911 912 913 915 916 916 917 918 919 919 917
778 781 787 792 801 806 809 816 822 828 834 839 845 852 858 863 867 871 876 880 882 886 890 893 896 899 903 906 908 909 910 912 913 914 915 916 916 917 917 917 918 917 917
775 783 787 792 801 806 811 817 824 831 837 843 848 854 859 863 869 874 878 881 885 888 891 894 898 901 904 907 909 910 911 913 914 915 916 917 917 917 917 917 917 917 915
773 782 788 793 800 807 814 820 827 834 840 845 851 856 860 865 870 874 879 883 887 890 893 896 899 901 905 908 910 911 912 914 915 916 917 919 918 917 916 916 916 916 915
775 781 789 795 802 810 815 822 831 838 843 848 853 858 863 867 871 876 880 885 889 891 894 897 900 903 906 909 911 912 913 915 916 917 918 918 918 918 918 916 916 914 914
779 784 790 794 804 812 820 827 832 840 847 849 855 860 866 869 873 878 883 886 890 893 896 899 901 904 907 909 912 913 914 915 917 918 919 919 919 919 918 917 915 915 912
783 790 794 797 808 814 821 828 836 842 849 852 855 862 867 873 877 880 885 888 891 894 897 900 903 906 909 912 913 915 915 916 917 918 919 919 919 918 916 915 914 913 909
786 794 797 802 811 818 822 828 837 844 850 854 857 864 870 875 879 882 886 889 892 895 899 902 905 908 910 912 914 915 916 916 916 917 918 917 916 916 914 913 912 910 907
791 798 801 807 814 822 826 827 838 844 851 856 860 866 871 875 880 884 887 890 893 897 900 903 905 908 910 912 914 915 916 916 917 917 917 916 916 915 914 913 911 909 907
797 802 807 812 816 824 829 832 840 845 853 857 862 868 873 876 880 885 889 893 896 899 901 904 906 908 910 912 913 914 915 915 916 916 916 915 915 914 912 911 909 907 904
800 806 811 815 820 827 832 837 842 848 853 859 864 868 873 877 882 886 891 896 897 901 903 905 907 909 911 913 914 914 915 915 915 915 915 914 914 912 911 909 906 904 901
Wind_Speed
11 15 16 16 15 15 15 16 17 17 16 15 13 11 13 14 16 16 14 15 14 13 10 10 10 10 11 12 13 18 23 23 22 20 23 21 19 20 21 19 19 21 22
12 16 17 17 20 19 18 17 17 18 19 20 14 10 14 12 15 15 15 14 16 14 14 12 10 9 9 10 11 12 18 17 13 9 11 3 7 18 18 16 17 19 19
16 15 19 19 21 22 22 20 20 21 20 17 14 12 13 15 15 14 14 14 13 14 12 14 12 10 10 9 8 7 9 10 8 13 5 3 2 5 10 14 15 15 17
14 14 20 21 20 21 21 19 18 19 19 18 17 18 13 14 13 16 14 14 14 13 13 12 14 14 12 11 11 8 6 7 9 5 6 6 10 3 3 8 12 13 15
16 17 22 24 21 22 21 20 18 18 18 23 22 21 16 12 20 19 17 16 15 15 14 12 12 13 13 13 12 10 8 6 6 4 4 7 9 8 5 3 6 13 14
17 16 24 26 25 25 22 21 20 19 19 18 22 19 17 21 21 21 20 18 17 18 16 15 14 14 15 14 15 14 12 11 10 9 8 6 5 3 4 4 6 9 8
16 17 17 23 24 24 23 21 21 19 19 19 17 19 20 20 21 23 22 22 21 20 18 18 17 16 16 17 17 17 19 18 18 18 19 16 13 9 8 9 5 4 4
15 17 20 26 26 25 26 23 23 20 19 18 19 19 21 21 18 22 23 23 22 22 19 20 20 19 18 19 19 21 22 21 22 22 21 21 20 17 12 7 5 3 3
15 16 19 23 25 24 24 26 25 24 23 23 24 23 23 23 20 20 22 25 24 23 22 21 21 20 20 19 20 22 22 21 21 22 20 21 20 18 17 16 10 4 2
13 13 17 24 24 26 25 25 25 25 25 24 24 23 22 22 22 22 22 25 25 24 23 22 21 20 20 19 20 22 20 20 22 21 20 20 19 18 17 16 15 13 6
11 13 16 22 25 25 27 27 28 27 25 26 24 26 25 25 24 23 22 24 26 24 23 23 22 20 21 20 21 22 20 21 21 20 19 20 17 18 17 16 15 15 12
10 10 17 23 24 24 25 26 27 28 27 26 28 27 27 26 25 25 23 24 26 24 24 22 21 20 20 19 20 22 19 20 20 19 19 18 16 17 15 16 15 14 13
10 10 13 17 21 23 24 25 28 29 29 29 30 30 27 27 27 27 26 25 26 25 25 23 23 22 22 21 21 20 19 19 18 17 17 15 13 14 13 14 13 13 11
11 9 8 13 19 22 24 26 29 31 31 31 32 31 29 28 28 27 26 26 25 26 25 24 23 22 22 20 20 18 17 16 16 14 14 13 13 14 13 10 10 11 12
12 11 8 11 18 20 22 25 29 31 32 33 33 32 30 29 28 28 27 26 25 25 25 25 24 22 19 16 16 15 15 14 14 13 12 12 11 10 9 8 10 11 11
13 13 13 15 19 22 23 25 28 31 33 34 34 33 32 31 29 28 27 27 26 25 24 23 23 22 20 14 15 13 13 13 13 13 13 11 11 11 10 9 9 9 11
13 14 14 19 19 21 27 27 30 32 33 36 35 34 33 31 30 29 28 27 25 23 23 23 21 21 19 14 13 13 13 13 13 12 13 12 11 9 13 11 9 11 11
14 12 19 21 20 24 26 31 31 33 35 34 34 34 33 32 30 28 27 25 23 22 21 20 18 19 17 13 12 12 13 13 13 14 14 14 14 13 12 10 12 13 14
15 18 22 25 28 27 29 31 30 31 32 30 31 32 32 32 30 28 26 24 22 20 19 17 16 17 17 11 12 12 13 13 14 14 13 12 13 12 18 18 17 17 13
21 25 26 28 28 27 31 31 26 24 25 27 28 29 29 29 28 26 25 21 19 18 18 18 17 16 17 11 11 13 12 14 14 14 13 9 14 13 15 19 18 17 8
25 28 29 30 30 30 29 26 26 22 23 29 29 27 27 28 26 23 21 20 20 20 19 18 16 17 15 14 11 10 10 12 11 11 11 14 12 13 15 14 14 15 13
24 25 27 30 29 31 31 26 23 26 27 28 28 28 25 21 23 23 21 21 22 21 20 18 18 16 16 12 11 9 9 7 7 8 8 10 13 13 13 13 13 13 15
23 23 28 29 28 29 32 29 27 30 27 27 28 24 22 22 21 22 23 23 21 20 18 17 16 14 13 12 8 7 8 10 8 7 9 11 10 12 14 14 15 16 19
21 24 27 27 26 25 26 33 31 33 30 29 27 24 24 23 21 23 23 22 21 19 17 15 14 14 12 11 9 8 8 7 6 7 9 9 10 12 13 15 17 18 18
22 24 25 25 25 28 28 31 33 34 30 29 26 24 21 24 24 23 22 20 18 16 16 13 12 13 11 7 6 10 9 9 6 9 8 9 12 15 17 19 21 21 20
24 24 23 26 26 28 27 29 31 31 30 25 23 25 26 26 26 25 19 13 13 11 10 11 10 7 3 4 7 8 7 6 4 6 9 10 11 14 17 20 23 24 23
Wind_Direction
200 186 196 194 192 190 193 185 183 178 168 163 156 158 138 134 134 127 131 133 128 128 132 136 135 139 143 135 133 131 131 126 121 104 91 82 85 87 87 87 84 79 75
184 187 187 191 198 191 191 191 191 182 177 168 182 164 150 142 137 130 128 132 128 133 132 128 134 141 133 134 138 143 143 136 144 132 117 119 73 67 76 81 77 76 74
192 183 185 191 195 192 192 190 187 191 185 178 174 168 155 146 134 133 125 122 129 131 133 131 132 132 134 134 130 136 152 151 132 161 143 140 136 121 61 73 80 79 75
196 185 180 187 188 187 186 190 187 188 181 199 172 169 181 165 152 142 132 123 128 125 125 129 132 130 125 124 123 127 144 165 149 127 89 114 133 144 143 71 80 86 80
189 184 182 178 178 185 179 178 182 183 182 187 181 175 187 175 149 139 134 129 124 120 122 123 121 116 115 108 107 110 122 135 147 141 117 95 110 119 138 144 126 88 78
187 177 171 166 169 182 180 177 176 177 181 181 175 171 179 165 153 142 136 130 123 118 120 119 115 110 106 103 98 98 97 100 105 98 93 92 80 79 92 108 110 127 85
175 164 163 166 160 164 173 173 173 168 174 177 169 167 177 171 162 149 143 135 126 120 116 117 112 108 104 101 99 97 95 92 94 90 86 83 80 88 93 114 110 126 141
172 172 166 162 161 163 170 171 172 163 163 170 164 168 170 168 159 153 144 136 130 123 120 116 114 110 107 105 103 99 94 95 91 89 86 83 77 78 84 105 124 106 114
163 160 155 156 157 156 159 167 166 165 166 167 166 164 167 160 156 147 142 133 127 123 121 117 115 112 110 107 104 100 95 92 88 84 83 79 75 75 75 74 78 86 125
143 142 148 152 151 151 152 154 159 156 160 161 164 159 155 152 152 151 141 135 126 126 124 120 116 115 111 107 105 100 96 95 87 84 82 78 75 73 71 68 66 66 84
137 142 144 143 142 142 144 145 150 150 152 161 154 155 147 154 148 146 140 131 129 129 125 121 117 113 108 106 103 97 95 92 89 84 81 77 72 70 67 63 61 61 58
131 132 135 136 140 140 140 140 142 148 157 155 150 146 145 146 148 140 138 135 128 128 124 121 117 112 108 105 101 98 93 90 85 82 79 77 70 65 62 57 60 57 40
124 129 134 139 140 141 139 138 147 149 153 152 148 142 144 143 143 137 135 133 129 126 121 120 115 111 105 101 96 95 92 86 83 76 72 69 62 59 55 47 51 42 31
141 133 128 135 139 140 140 140 143 151 151 149 145 142 143 143 138 136 133 129 127 124 121 118 113 106 99 95 94 92 88 83 76 70 64 62 56 53 50 43 42 19 19
156 147 133 130 135 136 137 138 141 146 149 144 143 143 143 140 137 134 128 123 123 121 123 119 110 99 90 90 94 91 85 76 68 64 62 62 55 46 39 31 27 23 16
166 150 144 141 143 143 138 137 142 147 152 145 143 142 140 139 137 130 127 125 122 120 121 120 113 104 95 103 94 85 77 69 67 65 59 58 48 38 41 36 29 15 0
169 162 156 147 144 144 143 142 146 149 147 146 145 145 142 138 134 131 131 127 122 121 117 118 115 105 99 103 93 85 77 74 69 61 57 51 39 42 37 32 19 9 359
162 156 149 137 138 139 138 142 145 149 147 143 143 144 142 137 136 134 129 126 124 120 117 116 116 107 96 100 96 82 77 79 72 61 59 47 45 35 14 32 20 13 14
148 149 143 136 135 137 140 139 139 142 142 141 143 144 142 138 138 134 131 130 125 118 113 110 114 111 99 100 95 78 88 82 65 57 58 39 32 25 59 30 19 11 11
137 134 133 131 131 137 141 136 134 137 138 141 142 143 141 139 136 135 134 131 128 122 116 109 105 111 104 99 106 87 89 74 66 57 52 45 41 40 10 2 360 3 354
138 136 138 134 135 139 139 135 135 137 141 141 140 137 140 140 137 135 136 133 127 123 118 111 106 109 104 94 100 93 88 78 65 54 57 41 25 9 356 357 12 0 341
140 140 136 131 138 141 141 133 132 140 141 135 133 137 139 132 138 136 133 131 128 121 115 111 106 106 106 84 84 80 79 87 61 69 40 24 3 5 14 20 9 4 353
133 139 134 132 139 145 143 135 137 139 135 134 131 130 133 138 142 139 136 132 128 122 118 116 115 111 102 93 88 90 66 64 69 69 25 4 21 27 30 21 14 6 1
129 136 133 134 137 142 140 135 142 146 142 135 134 134 136 140 140 139 136 131 127 121 117 113 113 122 114 88 93 84 94 75 125 21 27 34 31 26 18 11 7 360 352
133 135 135 134 132 136 136 142 148 149 142 140 139 136 139 143 141 138 132 128 122 119 118 113 116 121 100 51 70 110 84 74 73 4 25 23 20 16 9 4 0 356 351
133 129 127 125 126 131 134 144 150 153 144 135 138 142 142 141 140 137 134 123 132 130 121 119 102 121 72 75 88 94 66 43 6 3 5 8 6 3 358 355 352 350 346